This is the latest recevied weather packets stored in our database for station/object IZ6UQU-13. If no packets are shown the sender has not sent any weather packets the latest 10 day(s).
| Time | Temp. | Humidity | Pressure | Rain* | Wind** | Luminosity | Snow |
|---|---|---|---|---|---|---|---|
| 1777821306 | 20° C | 54% | 958.4 hPa | 0 mm | - | - | - |
| 1777821007 | 20.56° C | 54% | 958.4 hPa | 0 mm | - | - | - |
| 1777820707 | 20.56° C | 53% | 958.5 hPa | 0 mm | - | - | - |
| 1777820407 | 20° C | 55% | 958.4 hPa | 0 mm | - | - | - |
| 1777820106 | 19.44° C | 56% | 958.5 hPa | 0 mm | - | - | - |
| 1777819807 | 19.44° C | 56% | 958.6 hPa | 0 mm | - | - | - |
| 1777819507 | 19.44° C | 57% | 958.6 hPa | 0 mm | - | - | - |
| 1777819207 | 19.44° C | 56% | 958.6 hPa | 0 mm | - | - | - |
| 1777818907 | 19.44° C | 56% | 958.5 hPa | 0 mm | - | - | - |
| 1777818307 | 20° C | 53% | 958.5 hPa | 0 mm | - | - | - |
| 1777818006 | 20.56° C | 52% | 958.5 hPa | 0 mm | - | - | - |
| 1777817707 | 21.11° C | 52% | 958.5 hPa | 0 mm | - | - | - |
| 1777817406 | 21.11° C | 50% | 958.6 hPa | 0 mm | - | - | - |
| 1777817106 | 21.11° C | 50% | 958.5 hPa | 0 mm | - | - | - |
| 1777816807 | 21.11° C | 50% | 958.5 hPa | 0 mm | - | - | - |
| 1777816507 | 21.67° C | 50% | 958.5 hPa | 0 mm | - | - | - |
| 1777816208 | 21.67° C | 49% | 958.6 hPa | 0 mm | - | - | - |
| 1777815907 | 21.67° C | 50% | 958.5 hPa | 0 mm | - | - | - |
| 1777815607 | 22.22° C | 47% | 958.4 hPa | 0 mm | - | - | - |
| 1777815307 | 22.22° C | 45% | 958.5 hPa | 0 mm | - | - | - |
| 1777815008 | 22.22° C | 33% | 958.4 hPa | 0 mm | - | - | - |
| 1777814707 | 22.78° C | 34% | 958.6 hPa | 0 mm | - | - | - |
| 1777814407 | 22.78° C | 34% | 958.4 hPa | 0 mm | - | - | - |
| 1777814107 | 22.78° C | 33% | 958.5 hPa | 0 mm | - | - | - |
| 1777813807 | 22.78° C | 35% | 958.6 hPa | 0 mm | - | - | - |
* Rain latest hour (hover to see other rain measurements)
** Current wind speed in m/s (hover to see current wind gust speed)